Weather History for KLAA - October, 2012

Change the Weather History Date:

Thursday, October 4, 2012

  Actual Average Record
Temperature  
Mean Temperature 48 °F 58 °F  
Max Temperature 59 °F 76 °F 99 °F (1922)
Min Temperature 36 °F 41 °F 25 °F (1999)
Degree Days  
Heating Degree Days 17 8  
Month to date heating degree days 27 28  
Since 1 July heating degree days 76 111  
Cooling Degree Days 0 1  
Month to date cooling degree days 1 4  
Year to date cooling degree days 1626 1116  
Moisture  
Dew Point 28 °F    
Average Humidity 53    
Maximum Humidity 75    
Minimum Humidity 30    
Precipitation  
Precipitation 0.00 in 0.03 in 1.18 in (1946)
Month to date precipitation 0.00 0.11  
Year to date precipitation 5.50 13.73  
Sea Level Pressure  
Sea Level Pressure 30.23 in    
Wind  
Wind Speed 9 mph (NE)    
Max Wind Speed 20 mph    
Max Gust Speed 26 mph    
Visibility 10 miles    
Events      
T = Trace of Precipitation, MM = Missing Value Source: NWS Daily Summary

Daily Weather History Graph

Daily Weather History Graph

Search for Another Location

Airport or City:

Trip Planner

Search our weather history database for the weather conditions in past years. The results will help you decide how hot, cold, wet, or windy it might be!

Date:

Astronomy

Oct. 04, 2012 Rise Set
Actual Time 6:49 AM MDT 6:28 PM MDT
Civil Twilight 6:23 AM MDT 6:54 PM MDT
Nautical Twilight 5:52 AM MDT 7:25 PM MDT
Astronomical Twilight 5:22 AM MDT 7:55 PM MDT
Moon 9:10 PM MDT (10/4) 11:04 AM MDT (10/4)
Length of Visible Light 12h 31m
Length of Day
11h 38m
Waning Gibbous, 81% of the Moon is Illuminated
Oct 4
Waning Gibbous
Oct 8
Last Quarter
Oct 15
New
Oct 21
First Quarter
Oct 29
Full

Hourly Weather History & Observations

Time (MDT) Temp. Windchill Dew Point Humidity Pressure Visibility Wind Dir Wind Speed Gust Speed Precip Events Conditions
12:53 AM 48.9 °F - 34.0 °F 56% 30.14 in 10.0 mi North 15.0 mph - N/A   Scattered Clouds
1:53 AM 46.0 °F 40.6 °F 32.0 °F 58% 30.18 in 10.0 mi North 11.5 mph - N/A   Clear
2:53 AM 44.1 °F 36.5 °F 28.9 °F 55% 30.20 in 10.0 mi NNW 17.3 mph 23.0 mph N/A   Clear
3:53 AM 42.1 °F 35.2 °F 28.9 °F 60% 30.21 in 10.0 mi North 12.7 mph - N/A   Clear
4:53 AM 41.0 °F 34.3 °F 28.0 °F 60% 30.24 in 10.0 mi NNW 11.5 mph - N/A   Clear
5:53 AM 39.0 °F 33.4 °F 28.0 °F 65% 30.25 in 10.0 mi NNW 8.1 mph - N/A   Clear
6:53 AM 36.0 °F 31.1 °F 28.0 °F 73% 30.30 in 10.0 mi WNW 5.8 mph - N/A   Clear
7:53 AM 41.0 °F 35.8 °F 28.9 °F 62% 30.30 in 10.0 mi WNW 8.1 mph - N/A   Clear
8:53 AM 45.0 °F 39.3 °F 28.0 °F 52% 30.30 in 10.0 mi North 11.5 mph - N/A   Clear
9:53 AM 46.9 °F - 27.0 °F 46% 30.31 in 10.0 mi North 12.7 mph - N/A   Clear
10:53 AM 50.0 °F - 28.0 °F 43% 30.30 in 10.0 mi North 8.1 mph - N/A   Clear
11:53 AM 53.1 °F - 27.0 °F 37% 30.28 in 10.0 mi ENE 8.1 mph - N/A   Clear
12:53 PM 55.0 °F - 27.0 °F 34% 30.25 in 10.0 mi East 9.2 mph - N/A   Clear
1:53 PM 55.0 °F - 26.1 °F 33% 30.21 in 10.0 mi ENE 5.8 mph - N/A   Clear
2:53 PM 57.9 °F - 27.0 °F 31% 30.18 in 10.0 mi NE 4.6 mph - N/A   Clear
3:53 PM 57.9 °F - 26.1 °F 30% 30.17 in 10.0 mi ENE 9.2 mph - N/A   Clear
4:53 PM 57.9 °F - 26.1 °F 30% 30.17 in 10.0 mi East 6.9 mph - N/A   Clear
5:53 PM 57.0 °F - 26.1 °F 30% 30.19 in 10.0 mi East 8.1 mph - N/A   Clear
6:53 PM 52.0 °F - 27.0 °F 38% 30.21 in 10.0 mi East 5.8 mph - N/A   Clear
7:53 PM 50.0 °F - 28.0 °F 43% 30.20 in 10.0 mi ESE 10.4 mph - N/A   Clear
8:53 PM 48.9 °F - 28.0 °F 44% 30.22 in 10.0 mi ESE 8.1 mph - N/A   Clear
9:53 PM 46.0 °F 43.1 °F 28.0 °F 50% 30.23 in 10.0 mi East 5.8 mph - N/A   Clear
10:53 PM 45.0 °F 40.1 °F 28.0 °F 52% 30.20 in 10.0 mi ESE 9.2 mph - N/A   Clear
11:53 PM 44.1 °F 39.5 °F 28.9 °F 55% 30.19 in 10.0 mi ESE 8.1 mph - N/A   Clear